Home   Weather   Kuujjuaq   Past weeks
Flag for Canada

Past Weather in Kuujjuaq, Quebec, Canada — Yesterday and Last 2 Weeks

Now
10 °F

Light snow. Overcast.


Feels Like: -7 °F
Forecast: 11 / -15 °F
Wind: 17 mph from Northwest

Location: Kuujjuaq

Current Time: Mar 22, 2019 at 3:14:36 am

Latest Report: Mar 22, 2019 at 2:00 am


Visibility: 12 mi

Pressure: 29.43 "Hg

Humidity: 79%

Dew Point: 5 °F

Location of KuujjuaqLocation

Past Weather in Kuujjuaq — Graph

°F

Kuujjuaq Temperature Yesterday

Maximum temperature yesterday: 27 °F (at 7:00 pm)
Minimum temperature yesterday: -6 °F (at 2:00 am)
Average temperature yesterday: 13 °F

High & Low Weather Summary for the Past Weeks

 TemperatureHumidityPressure
High34 °F (Mar 15, 3:00 pm)100% (Mar 15, 10:00 pm)30.49 "Hg (Mar 15, 10:00 pm)
Low-17 °F (Mar 8, 5:00 am)44% (Mar 10, 4:00 pm)28.94 "Hg (Mar 16, 12:16 am)
Average5 °F73%29.75 "Hg
* Reported Mar 7 1:00 am — Mar 22 2:00 am, Kuujjuaq. Weather by CustomWeather, © 2019

Note: Actual official high and low records may vary slightly from our data, if they occured in-between our weather recording intervals... More about our weather records

Advertising

Kuujjuaq Weather History for the Previous 24 Hours

Scroll right to see more
 ConditionsComfort  
Time TempWeatherWind HumidityBarometerVisibility
2:00 am
Fri, Mar 22
10 °FLight snow. Overcast.17 mph79%29.43 "Hg12 mi
1:00 am12 °FLight snow. Mostly cloudy.12 mph79%29.38 "Hg15 mi
12:00 am14 °FLight snow. Overcast.9 mph85%29.33 "Hg6 mi
11:33 pm
Thu, Mar 21
16 °FLight snow. Mostly cloudy.14 mph86%29.31 "Hg4 mi
11:22 pm18 °FLight snow. Overcast.14 mph86%29.30 "Hg1 mi
10:00 pm21 °FLight snow. Overcast.7 mph86%29.26 "Hg6 mi
9:00 pm27 °FLight snow. Mostly cloudy.9 mph86%29.24 "Hg4 mi
8:00 pm25 °FLight snow. Mostly cloudy.2 mph93%29.24 "Hg4 mi
7:34 pm27 °FLight snow. Mostly cloudy.6 mph86%29.24 "Hg2 mi
7:00 pm27 °FLight snow. Passing clouds.5 mph86%29.23 "Hg8 mi
6:10 pm25 °FLight snow. Mostly cloudy.8 mph93%29.23 "Hg3 mi
5:36 pm25 °FLight snow. Mostly cloudy.8 mph93%29.24 "Hg1 mi
5:17 pm25 °FLight snow. Mostly cloudy.8 mph93%29.25 "Hg1 mi
4:49 pm25 °FLight snow. Ice fog.12 mph86%29.26 "Hg1 mi
4:00 pm23 °FLight snow. Overcast.13 mph86%29.28 "Hg1 mi
3:00 pm21 °FLight snow. Overcast.15 mph80%29.31 "Hg1 mi
2:53 pm21 °FLight snow. Overcast.17 mph80%29.31 "Hg1 mi
2:00 pm21 °FLight snow. Overcast.18 mph68%29.34 "Hg10 mi
1:33 pm21 °FLight snow. Mostly cloudy.16 mph58%29.35 "Hg15 mi
1:00 pm21 °FMostly cloudy.16 mph54%29.36 "Hg15 mi
12:00 pm16 °FMore clouds than sun.18 mph53%29.41 "Hg15 mi
11:00 am12 °FBroken clouds.17 mph48%29.46 "Hg15 mi
10:00 am7 °FPartly sunny.15 mph51%29.54 "Hg15 mi
9:00 am3 °FPartly sunny.14 mph55%29.60 "Hg15 mi
8:00 am1 °FPartly sunny.10 mph55%29.66 "Hg15 mi
7:00 am-2 °FPartly sunny.7 mph59%29.71 "Hg15 mi
6:00 am-2 °FPassing clouds.8 mph54%29.76 "Hg15 mi
5:00 am-4 °FPassing clouds.7 mph54%29.81 "Hg15 mi
4:00 am-4 °FPassing clouds.7 mph54%29.84 "Hg15 mi
3:00 am-4 °FPassing clouds.9 mph59%29.87 "Hg15 mi
Weather by CustomWeather, © 2019

See weather overview